Miscellaneous Local Product
Issued by NWS Hastings, NE

Home | Current Version | Previous Version | Graphics & Text | Print | Product List | Glossary On
Versions: 1 2 3 4 5 6 7 8 9 10 11 12 13 14 15 16 17 18 19 20 21 22 23 24 25 26 27 28 29 30 31 32 33 34 35 36 37 38 39 40 41 42 43 44 45 46 47 48 49 50
000
AXUS43 KGID 231802
MISGRI

GID CWA HOURLY WEATHER ROUNDUP
NATIONAL WEATHER SERVICE HASTINGS NE
100 PM CDT TUE MAY 23 2017

NOTE: "FAIR" INDICATES FEW OR NO CLOUDS BELOW 12,000 FEET WITH NO
SIGNIFICANT WEATHER AND/OR OBSTRUCTIONS TO VISIBILITY.

...SOUTH CENTRAL NEBRASKA...

CITY           SKY/WX    TMP DP  RH WIND       PRES   REMARKS
GRAND ISLAND   CLOUDY    56  40  55 N24G33    29.96S
HASTINGS       CLOUDY    57  41  55 N24G33    29.96S
KEARNEY        CLOUDY    55  37  50 NW17G24   29.99S
ORD            CLOUDY    52  42  69 NW18G24   29.97S
YORK           CLOUDY    57  39  51 NW17G28   29.92S
AURORA         CLOUDY    54  40  59 N22       29.95S
LEXINGTON      CLOUDY    57  41  56 N24       30.01S
HOLDREGE       CLOUDY    55  39  54 N20G26    30.00S
HEBRON         CLOUDY    60  42  52 N21G30    29.91F

...NEBRASKA PANHANDLE...

CITY           SKY/WX    TMP DP  RH WIND       PRES   REMARKS
CHADRON        MOSUNNY   59  39  47 N13G23    30.11F
ALLIANCE       MOSUNNY   56  38  50 N17G29    30.11F
SCOTTSBLUFF    CLOUDY    59  35  40 NW17      30.12F
SIDNEY         CLOUDY    53  37  54 N21G28    30.13S

...WESTERN AND NORTH CENTRAL NEBRASKA...

CITY           SKY/WX    TMP DP  RH WIND       PRES   REMARKS
VALENTINE      CLOUDY    54  35  48 N20G31    30.03F
AINSWORTH      CLOUDY    49  42  78 N14G20    30.02S
ONEILL         CLOUDY    51  40  65 N15G24    29.97S
BROKEN BOW     CLOUDY    52  38  58 N18G28    30.00S
IMPERIAL       CLOUDY    59  36  42 NW24G32   30.07F
NORTH PLATTE   CLOUDY    55  37  50 NW18G26   30.03F
MCCOOK         CLOUDY    61  35  37 N30G38    30.02F

...EASTERN NEBRASKA...

CITY           SKY/WX    TMP DP  RH WIND       PRES   REMARKS
NORFOLK        CLOUDY    53  42  66 N20G26    29.90F
SO SIOUX CITY  CLOUDY    56  49  77 NW15      29.88F
TEKAMAH        CLOUDY    56  44  64 NW15      29.87F
ALBION         CLOUDY    56  41  57 N17G24    29.94F
OMAHA EPPLEY   CLOUDY    58  44  60 NW13      29.86F
OFFUTT AFB     CLOUDY    57  45  64 NW13      29.87F
MILLARD        CLOUDY    58  47  66 NW13      29.89F
LINCOLN        CLOUDY    56  45  66 N9        29.90F
NEBRASKA CITY  CLOUDY    58  40  51 NW12G21   29.88F
BEATRICE         N/A     61  47  59 W7        29.88F
FALLS CITY     PTSUNNY   64  46  52 N13       29.86F

...NORTHERN KANSAS...

CITY           SKY/WX    TMP DP  RH WIND       PRES   REMARKS
GOODLAND       CLOUDY    56  39  53 N23G30    30.08S
HILL CITY      CLOUDY    65  38  36 N23G32    30.00
NORTON         CLOUDY    55  37  50 NW17G30   30.00S
PHILLIPSBURG   MOSUNNY   64  43  45 NW23      29.97F
SMITH CENTER   MOSUNNY   61  45  55 NW22G28   29.96F
HAYS           PTSUNNY   61  43  51 NW17G23   29.98F
RUSSELL        PTSUNNY   62  44  51 NW23      29.95F
CONCORDIA      CLOUDY    62  49  62 NW16G23   29.92F
SALINA         PTSUNNY   68  44  42 NW20      29.92F
TOPEKA         SUNNY     66  48  52 N13G21    29.87F



USA.gov is the U.S. government's official web portal to all federal, state and local government web resources and services.